| time (UTC) | temp F | wind direction | speed MPH | gust MPH | rain 1hr in | rain 24hr in | rain mn in | humidity % | barometer mb |
| 20260901110016 | 65 | 0.0 | 1.0 | 0.01 | 0.02 | 0.02 | 93 | 1017.3 | |
| 20260901105016 | 65 | 0.0 | 0.0 | 0.01 | 0.02 | 0.02 | 93 | 1017.2 | |
| 20260901104016 | 65 | 0.0 | 1.0 | 0.02 | 0.02 | 0.02 | 92 | 1017.0 | |
| 20260901103036 | 65 | 0.0 | 2.0 | 0.02 | 0.02 | 0.02 | 92 | 1016.9 | |
| 20260901102016 | 65 | 0.0 | 3.0 | 0.02 | 0.02 | 0.02 | 91 | 1016.8 | |
| 20260901101016 | 66 | 0.0 | 2.0 | 0.01 | 0.01 | 0.01 | 91 | 1016.8 | |
| 20260901100016 | 66 | 0.0 | 2.0 | 0.01 | 0.01 | 0.01 | 90 | 1016.8 | |
| 20260901095016 | 66 | 225 | 1.0 | 4.0 | 0.01 | 0.01 | 0.01 | 88 | 1016.8 |
| 20260901094036 | 66 | 180 | 1.0 | 5.0 | 0.00 | 0.00 | 0.00 | 87 | 1016.8 |
| 20260901093016 | 66 | 0.0 | 3.0 | 0.00 | 0.00 | 0.00 | 86 | 1016.9 | |
| 20260901092016 | 66 | 0.0 | 2.0 | 0.00 | 0.00 | 0.00 | 85 | 1016.8 | |
| 20260901091016 | 66 | 180 | 1.0 | 3.0 | 0.00 | 0.00 | 0.00 | 85 | 1016.8 |
| 20260901090016 | 66 | 180 | 1.0 | 4.0 | 0.00 | 0.00 | 0.00 | 84 | 1016.8 |
| 20260901085016 | 66 | 180 | 2.0 | 6.0 | 0.00 | 0.00 | 0.00 | 84 | 1016.8 |
| 20260901084016 | 67 | 158 | 3.0 | 6.0 | 0.00 | 0.00 | 0.00 | 83 | 1016.7 |
| 20260901083015 | 67 | 180 | 2.0 | 5.0 | 0.00 | 0.00 | 0.00 | 83 | 1016.8 |
| 20260901082015 | 67 | 158 | 2.0 | 6.0 | 0.00 | 0.00 | 0.00 | 82 | 1016.8 |
| 20260901081016 | 67 | 158 | 2.0 | 5.0 | 0.00 | 0.00 | 0.00 | 81 | 1016.8 |
| 20260901080016 | 67 | 180 | 2.0 | 5.0 | 0.00 | 0.00 | 0.00 | 81 | 1016.9 |
| 20260901075035 | 67 | 180 | 1.0 | 3.0 | 0.00 | 0.00 | 0.00 | 80 | 1017.1 |
| 20260901074016 | 68 | 180 | 1.0 | 4.0 | 0.00 | 0.00 | 0.00 | 80 | 1017.2 |
| 20260901073015 | 68 | 0.0 | 3.0 | 0.00 | 0.00 | 0.00 | 79 | 1017.2 | |
| 20260901072035 | 68 | 0.0 | 5.0 | 0.00 | 0.00 | 0.00 | 79 | 1017.2 | |
| 20260901071016 | 68 | 0.0 | 1.0 | 0.00 | 0.00 | 0.00 | 78 | 1017.3 | |
| 20260901070015 | 68 | 0.0 | 0.0 | 0.00 | 0.00 | 0.00 | 78 | 1017.3 | |
| 20260901065015 | 68 | 203 | 1.0 | 4.0 | 0.00 | 0.00 | 0.00 | 78 | 1017.4 |
| 20260901064015 | 68 | 203 | 1.0 | 3.0 | 0.00 | 0.00 | 0.00 | 78 | 1017.3 |
| 20260901063015 | 68 | 0.0 | 0.0 | 0.00 | 0.00 | 0.00 | 77 | 1017.3 | |
| 20260901062015 | 68 | 0.0 | 2.0 | 0.00 | 0.00 | 0.00 | 77 | 1017.4 | |
| 20260901061035 | 68 | 0.0 | 0.0 | 0.00 | 0.00 | 0.00 | 77 | 1017.6 | |
| 20260901060015 | 68 | 0.0 | 1.0 | 0.00 | 0.00 | 0.00 | 77 | 1017.6 | |
| 20260901055015 | 68 | 158 | 1.0 | 4.0 | 0.00 | 0.00 | 0.00 | 76 | 1017.5 |
| 20260901054017 | 68 | 203 | 1.0 | 3.0 | 0.00 | 0.00 | 0.00 | 76 | 1017.5 |
| 20260901053016 | 68 | 203 | 1.0 | 5.0 | 0.00 | 0.00 | 0.00 | 76 | 1017.6 |
| 20260901052017 | 68 | 0.0 | 4.0 | 0.00 | 0.00 | 0.00 | 76 | 1017.6 | |
| 20260901051017 | 68 | 203 | 1.0 | 3.0 | 0.00 | 0.00 | 0.00 | 76 | 1017.4 |
| 20260901050017 | 68 | 180 | 1.0 | 5.0 | 0.00 | 0.00 | 0.00 | 77 | 1017.5 |
| 20260901045017 | 68 | 203 | 1.0 | 5.0 | 0.00 | 0.00 | 0.00 | 78 | 1017.6 |
| 20260901044017 | 68 | 180 | 1.0 | 3.0 | 0.00 | 0.00 | 0.00 | 79 | 1017.6 |
| 20260901043017 | 68 | 180 | 2.0 | 5.0 | 0.00 | 0.00 | 0.00 | 80 | 1017.7 |
| 20260901042017 | 69 | 158 | 1.0 | 6.0 | 0.00 | 0.00 | 0.00 | 81 | 1017.6 |
| 20260901041017 | 69 | 158 | 2.0 | 7.0 | 0.00 | 0.00 | 0.00 | 81 | 1017.6 |
| 20260901040017 | 69 | 158 | 2.0 | 5.0 | 0.00 | 0.00 | 0.00 | 82 | 1017.5 |
| 20260901035035 | 69 | 158 | 2.0 | 5.0 | 0.00 | 0.00 | 0.00 | 82 | 1017.6 |
| 20260901034016 | 69 | 0.0 | 2.0 | 0.00 | 0.00 | 0.00 | 82 | 1017.7 | |
| 20260901033016 | 69 | 158 | 1.0 | 3.0 | 0.00 | 0.00 | 0.00 | 82 | 1017.7 |
| 20260901032015 | 69 | 158 | 1.0 | 4.0 | 0.00 | 0.00 | 0.00 | 82 | 1017.7 |
| 20260901031015 | 69 | 158 | 1.0 | 4.0 | 0.00 | 0.00 | 0.00 | 81 | 1017.6 |
| 20260901030015 | 69 | 158 | 2.0 | 6.0 | 0.00 | 0.00 | 0.00 | 81 | 1017.5 |
| 20260901025015 | 69 | 158 | 2.0 | 5.0 | 0.00 | 0.00 | 0.00 | 80 | 1017.4 |
| 20260901024016 | 69 | 180 | 2.0 | 6.0 | 0.00 | 0.00 | 0.00 | 79 | 1017.5 |
| 20260901023016 | 69 | 158 | 2.0 | 6.0 | 0.00 | 0.00 | 0.00 | 78 | 1017.5 |
| 20260901022015 | 69 | 180 | 2.0 | 5.0 | 0.00 | 0.00 | 0.00 | 76 | 1017.4 |
| 20260901021015 | 69 | 158 | 3.0 | 6.0 | 0.00 | 0.00 | 0.00 | 74 | 1017.5 |
| 20260901020015 | 70 | 158 | 2.0 | 5.0 | 0.00 | 0.00 | 0.00 | 73 | 1017.5 |
| 20260901015015 | 70 | 158 | 2.0 | 5.0 | 0.00 | 0.00 | 0.00 | 72 | 1017.6 |
| 20260901014035 | 70 | 158 | 2.0 | 4.0 | 0.00 | 0.00 | 0.00 | 71 | 1017.6 |
| 20260901013015 | 70 | 158 | 1.0 | 3.0 | 0.00 | 0.00 | 0.00 | 70 | 1017.6 |
| 20260901012055 | 70 | 158 | 1.0 | 2.0 | 0.00 | 0.00 | 0.00 | 70 | 1017.8 |
| 20260901011015 | 71 | 158 | 1.0 | 3.0 | 0.00 | 0.00 | 0.00 | 69 | 1017.7 |
| 20260901010015 | 71 | 158 | 1.0 | 3.0 | 0.00 | 0.00 | 0.00 | 68 | 1017.7 |
| 20260901005015 | 72 | 180 | 1.0 | 3.0 | 0.00 | 0.00 | 0.00 | 67 | 1017.7 |
| 20260901004015 | 72 | 180 | 1.0 | 2.0 | 0.00 | 0.00 | 0.00 | 65 | 1017.5 |
| 20260901003015 | 72 | 0.0 | 2.0 | 0.00 | 0.00 | 0.00 | 65 | 1017.4 | |
| 20260901002017 | 72 | 0.0 | 2.0 | 0.00 | 0.00 | 0.00 | 64 | 1017.4 | |
| 20260901001017 | 73 | 180 | 1.0 | 3.0 | 0.00 | 0.00 | 0.00 | 64 | 1017.4 |
| 20260901000037 | 73 | 180 | 1.0 | 3.0 | 0.00 | 0.00 | 0.00 | 64 | 1017.3 |
| 20260831235017 | 73 | 0.0 | 2.0 | 0.00 | 0.00 | 0.00 | 63 | 1017.4 | |
| 20260831234017 | 74 | 0.0 | 2.0 | 0.00 | 0.00 | 0.00 | 62 | 1017.5 | |
| 20260831233037 | 74 | 0.0 | 3.0 | 0.00 | 0.00 | 0.00 | 60 | 1017.5 | |
| 20260831232017 | 75 | 0.0 | 0.0 | 0.00 | 0.00 | 0.00 | 59 | 1017.5 | |
| 20260831231017 | 75 | 0.0 | 2.0 | 0.00 | 0.00 | 0.00 | 59 | 1017.6 | |
| 20260831230015 | 75 | 0.0 | 2.0 | 0.00 | 0.00 | 0.00 | 58 | 1017.7 | |
| 20260831225017 | 76 | 0.0 | 3.0 | 0.00 | 0.00 | 0.00 | 58 | 1017.7 | |
| 20260831224017 | 76 | 225 | 1.0 | 3.0 | 0.00 | 0.00 | 0.00 | 57 | 1017.8 |
| 20260831223017 | 77 | 225 | 1.0 | 3.0 | 0.00 | 0.00 | 0.00 | 55 | 1017.8 |
| 20260831222017 | 77 | 203 | 1.0 | 3.0 | 0.00 | 0.00 | 0.00 | 55 | 1017.8 |
| 20260831221017 | 77 | 180 | 1.0 | 4.0 | 0.00 | 0.00 | 0.00 | 54 | 1017.8 |
| 20260831220017 | 78 | 248 | 2.0 | 6.0 | 0.00 | 0.00 | 0.00 | 53 | 1017.7 |
| 20260831215037 | 78 | 225 | 2.0 | 5.0 | 0.00 | 0.00 | 0.00 | 51 | 1017.6 |
| 20260831214017 | 79 | 293 | 1.0 | 4.0 | 0.00 | 0.00 | 0.00 | 48 | 1017.6 |
| 20260831213017 | 80 | 270 | 2.0 | 6.0 | 0.00 | 0.00 | 0.00 | 48 | 1017.7 |
| 20260831212017 | 80 | 225 | 2.0 | 6.0 | 0.00 | 0.00 | 0.00 | 48 | 1017.9 |
| 20260831211017 | 80 | 338 | 1.0 | 4.0 | 0.00 | 0.00 | 0.00 | 48 | 1017.9 |
| 20260831210017 | 80 | 315 | 2.0 | 5.0 | 0.00 | 0.00 | 0.00 | 47 | 1018.0 |
| 20260831205017 | 81 | 338 | 2.0 | 5.0 | 0.00 | 0.00 | 0.00 | 46 | 1017.9 |
| 20260831204017 | 81 | 180 | 1.0 | 4.0 | 0.00 | 0.00 | 0.00 | 47 | 1018.0 |
| 20260831203017 | 81 | 203 | 1.0 | 4.0 | 0.00 | 0.00 | 0.00 | 45 | 1017.9 |
| 20260831202017 | 81 | 248 | 2.0 | 7.0 | 0.00 | 0.00 | 0.00 | 46 | 1018.0 |
| 20260831201017 | 82 | 248 | 1.0 | 4.0 | 0.00 | 0.00 | 0.00 | 44 | 1017.9 |
| 20260831200017 | 81 | 203 | 2.0 | 7.0 | 0.00 | 0.00 | 0.00 | 44 | 1018.0 |
| 20260831195037 | 82 | 225 | 2.0 | 6.0 | 0.00 | 0.00 | 0.00 | 44 | 1018.2 |
| 20260831194057 | 82 | 180 | 2.0 | 5.0 | 0.00 | 0.00 | 0.00 | 44 | 1018.2 |
| 20260831193017 | 81 | 180 | 2.0 | 6.0 | 0.00 | 0.00 | 0.00 | 44 | 1018.2 |
| 20260831192017 | 81 | 225 | 2.0 | 6.0 | 0.00 | 0.00 | 0.00 | 44 | 1018.2 |
| 20260831191017 | 80 | 315 | 2.0 | 5.0 | 0.00 | 0.00 | 0.00 | 44 | 1018.5 |
| 20260831190017 | 80 | 315 | 1.0 | 4.0 | 0.00 | 0.00 | 0.00 | 44 | 1018.6 |
| 20260831185017 | 80 | 180 | 1.0 | 4.0 | 0.00 | 0.00 | 0.00 | 43 | 1018.6 |
| 20260831184037 | 80 | 0 | 2.0 | 7.0 | 0.00 | 0.00 | 0.00 | 41 | 1018.7 |
| 20260831183016 | 80 | 338 | 2.0 | 4.0 | 0.00 | 0.00 | 0.00 | 43 | 1018.8 |
| 20260831182017 | 79 | 23 | 3.0 | 6.0 | 0.00 | 0.00 | 0.00 | 42 | 1019.0 |
| 20260831181017 | 80 | 315 | 3.0 | 7.0 | 0.00 | 0.00 | 0.00 | 42 | 1019.1 |
| 20260831180017 | 81 | 338 | 2.0 | 6.0 | 0.00 | 0.00 | 0.00 | 40 | 1019.1 |
| 20260831175037 | 81 | 270 | 2.0 | 4.0 | 0.00 | 0.00 | 0.00 | 41 | 1019.0 |
| 20260831174016 | 80 | 338 | 2.0 | 8.0 | 0.00 | 0.00 | 0.00 | 42 | 1019.0 |
| 20260831173016 | 81 | 23 | 1.0 | 5.0 | 0.00 | 0.00 | 0.00 | 40 | 1019.2 |
| 20260831172016 | 80 | 45 | 2.0 | 5.0 | 0.00 | 0.00 | 0.00 | 40 | 1019.4 |
| 20260831171016 | 79 | 135 | 1.0 | 3.0 | 0.00 | 0.00 | 0.00 | 41 | 1019.6 |
| 20260831170016 | 78 | 68 | 2.0 | 6.0 | 0.00 | 0.00 | 0.00 | 39 | 1019.5 |
| 20260831165016 | 79 | 293 | 2.0 | 6.0 | 0.00 | 0.00 | 0.00 | 41 | 1019.7 |
| 20260831164016 | 79 | 270 | 1.0 | 3.0 | 0.00 | 0.00 | 0.00 | 41 | 1019.8 |
| 20260831163016 | 80 | 338 | 2.0 | 5.0 | 0.00 | 0.00 | 0.00 | 40 | 1019.8 |
| 20260831162056 | 80 | 293 | 1.0 | 4.0 | 0.00 | 0.00 | 0.00 | 41 | 1019.9 |
| 20260831161016 | 79 | 293 | 1.0 | 5.0 | 0.00 | 0.00 | 0.00 | 43 | 1020.0 |
| 20260831160037 | 79 | 248 | 1.0 | 4.0 | 0.00 | 0.00 | 0.00 | 42 | 1020.0 |
| 20260831155036 | 79 | 180 | 1.0 | 3.0 | 0.00 | 0.00 | 0.00 | 45 | 1020.1 |
| 20260831154017 | 78 | 180 | 1.0 | 4.0 | 0.00 | 0.00 | 0.00 | 46 | 1020.2 |
| 20260831153016 | 78 | 248 | 1.0 | 4.0 | 0.00 | 0.00 | 0.00 | 47 | 1020.2 |
| 20260831152036 | 77 | 315 | 1.0 | 5.0 | 0.00 | 0.00 | 0.00 | 47 | 1020.2 |
| 20260831151016 | 76 | 180 | 2.0 | 5.0 | 0.00 | 0.00 | 0.00 | 50 | 1020.4 |
| 20260831150016 | 75 | 180 | 3.0 | 5.0 | 0.00 | 0.00 | 0.00 | 49 | 1020.4 |
| 20260831145036 | 75 | 270 | 2.0 | 5.0 | 0.00 | 0.00 | 0.00 | 50 | 1020.4 |
| 20260831144056 | 74 | 270 | 2.0 | 4.0 | 0.00 | 0.00 | 0.00 | 51 | 1020.5 |
| 20260831143016 | 74 | 225 | 1.0 | 3.0 | 0.00 | 0.00 | 0.00 | 53 | 1020.5 |
| 20260831142016 | 74 | 203 | 1.0 | 3.0 | 0.00 | 0.00 | 0.00 | 52 | 1020.6 |
| 20260831141016 | 73 | 180 | 1.0 | 3.0 | 0.00 | 0.00 | 0.00 | 53 | 1020.5 |
| 20260831140016 | 73 | 135 | 1.0 | 5.0 | 0.00 | 0.00 | 0.00 | 53 | 1020.5 |
| 20260831135016 | 73 | 180 | 1.0 | 4.0 | 0.00 | 0.00 | 0.00 | 54 | 1020.4 |
| 20260831134016 | 72 | 68 | 1.0 | 3.0 | 0.00 | 0.00 | 0.00 | 54 | 1020.4 |
| 20260831133016 | 71 | 158 | 1.0 | 5.0 | 0.00 | 0.00 | 0.00 | 54 | 1020.4 |
| 20260831132016 | 71 | 135 | 2.0 | 4.0 | 0.00 | 0.00 | 0.00 | 56 | 1020.3 |
| 20260831131016 | 70 | 0 | 2.0 | 4.0 | 0.00 | 0.00 | 0.00 | 57 | 1020.3 |
| 20260831130016 | 69 | 135 | 1.0 | 4.0 | 0.00 | 0.00 | 0.00 | 59 | 1020.2 |
| 20260831125016 | 68 | 68 | 2.0 | 5.0 | 0.00 | 0.00 | 0.00 | 61 | 1020.2 |
| 20260831124016 | 68 | 45 | 1.0 | 5.0 | 0.00 | 0.00 | 0.00 | 66 | 1020.3 |
| 20260831123016 | 67 | 338 | 2.0 | 7.0 | 0.00 | 0.00 | 0.00 | 68 | 1020.2 |
| 20260831122016 | 66 | 23 | 2.0 | 5.0 | 0.00 | 0.00 | 0.00 | 71 | 1020.1 |
| 20260831121016 | 65 | 0 | 3.0 | 6.0 | 0.00 | 0.00 | 0.00 | 73 | 1020.0 |
| 20260831120016 | 64 | 338 | 1.0 | 5.0 | 0.00 | 0.00 | 0.00 | 77 | 1020.0 |
| 20260831115016 | 63 | 0 | 1.0 | 4.0 | 0.00 | 0.00 | 0.00 | 80 | 1019.9 |
| 20260831114016 | 63 | 0 | 3.0 | 5.0 | 0.00 | 0.00 | 0.00 | 81 | 1019.8 |
| 20260831113016 | 62 | 23 | 2.0 | 5.0 | 0.00 | 0.00 | 0.00 | 82 | 1019.8 |
| 20260831112016 | 62 | 0 | 1.0 | 5.0 | 0.00 | 0.00 | 0.00 | 85 | 1019.6 |
| 20260831111016 | 61 | 0 | 2.0 | 5.0 | 0.00 | 0.00 | 0.00 | 86 | 1019.5 |